Theta_e
321 322 323 323 324 324 324 324 324 324 323 323 322 322 321 320 319 318 317 316 316 315 314 313 312 311 310 309 309 308 306 302 299 296 294 292 292 291 291 291 292 292 291 291 290 290 289 289 288 288 288 288 287 287 287 287 287 287 287 287 287 288 289 291 291 291 290 288 288 288 288 288 288 288 288 288 288 288 288 288 288 288 288 288 288
321 321 322 322 322 323 323 322 322 322 322 321 321 320 319 319 318 317 316 315 314 313 312 310 309 309 308 307 304 301 298 296 294 292 292 292 292 291 291 291 291 291 290 290 289 289 289 288 288 288 287 287 287 287 287 286 286 286 286 286 286 286 287 288 289 289 289 288 287 287 287 287 287 287 287 287 287 287 287 287 287 287 287 287 288
320 320 321 321 321 321 321 321 321 320 320 319 319 318 317 317 317 316 315 314 312 310 309 308 307 305 303 300 297 295 293 292 292 291 292 292 292 291 291 291 291 290 289 289 288 288 288 287 287 287 287 287 286 286 286 286 286 286 286 285 286 286 286 287 288 288 288 287 287 287 287 287 287 287 287 287 287 287 287 287 287 287 287 287 287
319 319 320 319 319 319 319 319 319 319 319 318 317 317 316 315 315 314 313 311 309 308 307 305 303 300 297 294 293 292 292 291 291 291 291 291 291 291 291 290 290 289 289 288 288 287 287 287 287 287 286 286 286 286 286 286 285 285 285 285 285 285 285 286 286 287 287 287 287 286 286 286 286 286 286 286 286 286 286 286 286 286 286 286 286
318 318 318 318 318 318 318 317 317 317 317 316 316 315 314 314 313 312 310 307 306 306 303 300 297 295 293 292 292 291 291 291 291 291 291 291 291 290 290 289 289 288 288 287 287 287 287 287 286 286 286 286 286 286 285 285 285 285 285 285 285 285 285 285 285 286 286 286 286 286 285 285 286 286 286 286 286 285 285 285 285 285 285 285 285
316 316 317 317 316 316 316 315 315 315 315 314 314 313 312 312 310 308 306 305 304 301 297 295 293 292 292 292 291 291 291 291 291 291 290 290 290 289 289 289 288 288 287 287 287 287 286 286 286 286 286 285 285 285 285 285 285 285 284 284 285 285 285 285 285 285 285 285 285 285 285 285 285 285 285 285 285 285 285 285 285 285 284 284 284
314 315 315 315 314 314 314 314 313 313 313 312 311 311 310 309 307 305 303 301 298 295 293 293 292 292 291 291 291 291 290 290 290 290 289 289 289 289 288 288 288 287 287 287 286 286 286 286 285 285 285 285 285 285 284 284 284 284 284 284 284 284 284 284 285 285 285 285 285 285 285 285 285 285 284 284 284 284 285 285 284 284 284 284 284
313 313 313 313 313 312 312 312 312 312 311 310 309 308 307 305 304 302 299 296 294 293 292 292 291 291 291 291 291 290 290 290 289 289 289 288 288 288 288 288 287 287 287 286 286 286 285 285 285 285 285 284 284 284 284 284 284 284 284 284 284 284 284 284 284 284 284 284 285 285 284 284 284 284 284 284 284 284 284 284 284 284 284 284 284
312 312 311 311 311 311 311 310 310 309 309 308 307 305 304 302 300 297 295 293 292 292 291 291 291 290 290 290 290 290 289 289 289 288 288 288 288 288 287 287 287 287 286 286 286 285 285 285 285 284 284 284 283 283 283 283 283 283 283 283 283 283 284 284 284 284 284 284 284 284 284 284 284 284 284 284 284 284 283 283 284 284 284 284 284
311 310 310 310 310 309 309 308 307 307 307 306 304 302 300 298 296 294 293 292 291 291 291 291 290 290 290 289 289 289 289 289 288 288 288 288 287 287 287 287 287 286 286 286 285 285 285 285 284 284 284 283 283 282 282 282 282 282 283 283 283 283 283 283 283 283 283 284 284 284 284 284 283 283 283 283 283 283 283 284 284 284 284 284 284
309 309 308 308 308 307 307 306 305 305 304 303 301 299 297 295 293 292 291 291 290 290 290 290 290 289 289 289 289 288 288 288 288 287 287 287 287 287 287 286 286 286 285 285 285 285 284 284 284 283 283 283 282 282 282 281 281 282 282 283 283 283 283 283 283 283 283 283 283 283 283 283 283 283 283 283 283 283 283 284 284 284 284 284 284
307 307 307 307 306 305 305 304 304 303 302 300 298 295 294 293 292 291 290 290 290 290 289 289 289 289 289 288 288 288 287 287 287 287 287 287 287 286 286 286 285 285 285 285 284 284 284 284 283 283 283 282 282 282 281 281 281 282 282 282 282 282 282 283 283 283 283 283 283 283 283 283 283 283 283 283 283 283 284 284 284 284 284 284 284
305 305 305 305 304 303 303 302 302 301 299 297 295 293 293 292 291 291 290 290 290 289 289 289 288 288 288 288 287 287 287 287 286 286 287 287 286 286 286 285 285 285 284 284 283 283 283 283 282 282 282 282 281 281 281 281 282 282 282 282 282 282 282 282 283 283 283 283 283 283 283 283 283 283 283 283 283 283 283 283 283 283 284 284 284
303 303 303 302 302 301 300 300 299 298 296 294 293 292 292 291 290 290 290 289 289 289 288 288 288 288 287 287 287 287 286 286 286 286 286 286 286 286 285 285 284 284 283 283 282 282 282 281 281 281 281 281 280 280 281 282 282 282 282 282 282 282 282 282 282 282 282 282 282 282 282 283 283 283 283 283 283 283 283 283 283 283 283 283 283
300 300 300 299 299 298 298 297 296 295 293 292 292 291 290 290 290 290 289 289 289 288 288 288 287 287 287 287 287 286 286 286 286 286 286 286 286 285 284 284 283 283 282 282 281 281 281 281 280 280 279 279 280 281 282 283 283 282 282 282 282 282 282 282 282 282 282 282 282 283 283 283 283 283 283 282 282 282 282 282 282 282 282 282 282
297 297 297 296 295 296 295 294 293 293 292 291 290 290 290 290 289 289 289 288 288 288 288 288 287 287 287 286 286 286 286 285 286 286 285 286 285 284 284 283 282 282 282 281 281 281 281 280 279 278 278 279 280 281 282 283 282 282 282 282 282 282 281 281 281 281 282 282 282 282 282 282 282 281 281 281 281 281 281 281 281 281 282 282 282
295 295 294 294 294 294 294 293 292 291 290 290 290 289 289 290 289 289 289 288 288 288 287 287 287 287 286 286 286 286 286 285 285 285 285 285 284 283 283 282 282 282 281 280 280 280 280 279 278 278 278 279 281 282 282 283 282 282 282 282 281 281 280 280 280 281 281 281 281 280 280 280 280 280 280 280 281 281 281 281 281 281 281 281 281
294 294 294 294 293 293 292 292 291 290 290 289 289 289 289 289 289 289 289 288 288 287 287 287 286 286 286 286 286 286 285 285 285 284 284 284 284 283 282 282 281 281 280 279 279 279 279 278 278 278 279 280 281 282 282 282 282 282 281 281 280 279 279 280 280 280 279 279 279 278 278 278 279 279 279 279 280 280 280 280 280 280 281 281 281
295 294 294 293 292 291 291 290 290 290 289 289 289 289 289 289 289 288 288 288 287 287 286 286 286 285 286 286 285 285 285 285 284 284 284 283 283 283 282 282 281 280 279 278 278 278 278 278 278 278 280 280 281 282 282 282 281 280 280 279 279 279 279 279 279 278 277 277 277 277 277 277 278 278 278 278 279 278 278 279 279 280 280 280 281
294 294 293 292 291 290 290 290 289 289 289 289 289 289 289 288 288 287 287 287 287 286 286 286 286 285 285 285 285 285 284 284 284 283 283 282 282 282 281 281 280 279 278 278 278 278 278 278 277 278 280 280 281 281 281 280 280 279 278 278 278 279 279 278 277 276 276 276 276 276 277 277 277 277 277 277 277 277 278 278 279 279 279 280 280
294 293 292 291 290 290 290 289 289 289 289 289 289 289 288 288 287 287 286 286 286 286 285 285 285 285 284 284 284 284 284 284 283 283 282 282 281 281 281 280 280 279 278 277 278 278 278 278 278 278 280 280 280 280 279 279 278 277 277 278 278 278 277 276 275 275 275 276 276 276 276 276 276 276 276 276 276 277 277 278 278 278 279 279 280
293 292 291 290 290 289 289 288 288 288 288 289 288 288 287 287 286 286 286 286 286 285 285 285 285 285 284 284 284 283 283 283 282 282 282 282 281 281 280 280 279 278 277 277 277 277 277 277 278 279 280 279 279 278 277 277 276 276 276 277 276 276 275 275 274 275 275 275 275 275 275 275 275 275 275 276 276 276 276 277 277 278 278 279 280
292 291 290 289 289 288 288 288 287 288 288 288 287 287 286 286 286 285 285 286 285 285 284 284 284 284 283 283 283 283 283 282 282 282 282 282 281 280 279 279 279 278 277 277 276 276 277 278 278 279 279 278 277 276 276 275 275 275 275 275 275 274 274 273 274 274 275 275 274 274 274 274 274 274 275 275 276 276 276 276 277 277 278 279 279
290 289 289 288 287 287 287 287 287 287 287 286 286 286 286 285 285 285 285 285 285 284 284 284 284 284 283 283 282 282 281 282 282 282 282 282 281 280 279 278 278 277 277 276 276 276 277 278 278 278 277 276 276 275 275 274 274 274 274 273 273 273 273 273 273 273 273 273 273 273 273 273 273 273 274 275 275 275 275 276 276 277 277 278 279
290 289 288 287 287 286 286 286 286 286 286 286 286 286 286 285 284 284 284 284 285 284 284 284 284 284 283 283 282 281 281 282 283 282 282 282 280 279 278 277 277 276 276 275 276 277 278 278 277 276 276 275 275 274 274 273 273 273 273 273 273 272 272 272 272 272 271 271 271 271 271 272 272 273 274 275 275 275 275 275 276 276 277 278 278
289 288 287 287 286 286 285 285 285 285 285 285 286 286 286 285 285 284 284 284 284 284 284 284 283 283 283 283 283 282 282 282 282 281 281 281 280 278 277 276 276 275 275 276 277 277 276 276 275 275 275 274 274 273 273 273 272 273 273 273 272 271 271 271 270 270 270 270 270 270 271 271 272 273 274 274 274 274 275 275 275 276 277 277 278
288 287 286 286 285 285 285 285 285 284 284 284 284 285 285 285 285 284 284 283 283 284 284 283 283 284 284 283 283 283 282 282 281 280 280 279 278 277 276 275 275 275 275 276 276 276 275 275 275 275 274 274 273 273 273 273 273 273 273 273 272 271 270 270 269 269 269 269 269 270 270 271 272 273 273 274 274 274 274 275 275 276 277 277 277
288 286 285 285 284 284 284 284 284 284 283 283 283 284 284 284 284 285 285 285 284 284 284 284 285 286 285 284 283 282 281 281 281 280 279 278 277 276 275 275 275 275 275 276 275 275 275 275 275 274 274 274 274 274 273 273 273 273 273 273 272 271 270 269 268 268 268 268 269 270 270 271 272 272 273 273 273 273 274 274 275 276 276 276 276
286 285 284 283 283 283 282 283 283 283 283 282 283 283 284 284 284 285 285 285 285 285 287 288 288 287 285 284 283 282 281 281 280 279 278 276 276 275 275 275 275 275 275 275 275 275 275 275 275 274 274 274 274 273 273 273 273 272 272 272 271 271 270 268 267 267 267 268 269 269 270 271 271 272 272 272 273 273 274 274 275 275 275 275 275
284 283 282 282 282 281 281 282 282 282 282 282 282 282 282 283 284 284 284 284 285 286 287 287 287 285 284 284 283 282 281 281 279 278 276 275 275 275 275 275 275 275 275 275 275 275 275 275 274 274 273 273 272 271 271 271 270 270 271 271 270 269 268 268 267 267 267 268 268 269 270 270 270 271 271 272 272 273 273 274 274 275 275 275 274
283 282 281 281 281 281 281 281 281 281 281 282 282 281 281 281 281 282 283 284 285 284 283 283 284 283 283 283 282 280 280 279 278 276 275 275 275 274 275 275 275 276 276 276 275 275 275 274 274 273 273 272 271 270 269 269 268 267 267 268 269 268 267 266 266 266 266 267 268 268 269 269 270 270 270 271 272 272 273 273 274 274 274 274 273
283 282 281 281 281 280 280 280 280 280 280 280 281 281 280 279 279 279 280 282 282 281 281 281 282 281 281 281 280 279 278 277 276 275 274 274 274 274 274 275 275 276 276 275 275 275 274 274 273 272 272 271 270 270 269 267 267 266 266 266 267 267 266 266 266 266 266 267 267 268 268 269 269 269 270 270 271 272 272 273 273 273 273 273 272
284 283 281 281 280 280 280 279 279 280 280 280 280 280 280 280 279 279 278 279 279 279 279 279 279 279 279 278 278 278 277 275 274 274 274 273 274 274 274 274 275 276 275 275 274 274 274 273 272 272 271 270 270 269 268 267 267 267 266 266 266 266 266 265 265 266 266 266 267 267 268 268 268 268 269 270 271 271 272 273 273 272 272 272 271
284 283 281 281 280 279 279 279 280 280 281 281 280 280 280 281 281 280 278 277 277 277 277 277 276 276 276 276 275 275 275 274 274 273 273 273 273 274 274 274 274 275 275 274 274 274 273 272 272 271 270 270 270 269 269 268 268 268 267 266 266 265 265 265 265 265 265 266 266 266 267 267 267 268 268 269 270 271 272 272 272 272 271 270 270
283 282 281 281 280 279 279 279 280 280 279 280 280 280 280 280 281 280 279 278 277 276 275 275 275 275 275 275 274 273 273 273 273 273 272 273 273 274 273 273 274 274 274 274 274 273 272 272 271 270 270 271 270 269 268 268 269 268 267 266 265 264 265 265 265 265 265 265 265 266 266 266 267 267 268 269 270 271 271 272 272 271 270 269 269
282 281 280 280 280 279 279 279 279 279 279 279 279 279 279 279 278 278 278 278 277 275 275 274 274 274 274 273 273 273 273 273 272 272 272 272 273 273 273 273 273 273 273 273 273 272 271 271 270 270 270 270 269 269 269 269 269 269 267 265 264 264 264 265 265 265 265 265 265 265 266 266 266 267 267 268 270 270 271 271 271 270 269 269 268
281 281 280 280 279 279 278 277 277 278 278 278 277 277 277 277 277 276 276 276 275 274 274 274 273 273 272 272 272 272 272 272 271 271 271 272 273 273 273 273 273 273 273 273 272 271 271 270 270 270 269 269 269 269 269 269 269 269 268 266 264 263 264 264 264 264 264 264 264 264 265 265 266 266 267 268 269 270 270 270 270 270 269 268 268
281 281 280 280 279 278 277 277 276 276 276 275 275 275 276 276 275 275 275 274 274 273 273 273 272 272 272 272 272 272 271 270 270 270 270 272 273 273 273 273 273 273 273 273 272 271 271 270 270 269 269 269 269 269 269 269 269 268 268 267 266 265 264 264 264 264 264 264 264 264 264 265 266 266 266 267 269 269 270 270 270 269 269 268 268
280 279 279 279 278 277 277 276 275 275 274 274 274 275 275 274 274 274 274 273 273 273 273 273 272 273 273 273 272 272 271 270 270 270 271 271 272 272 272 272 272 272 272 272 272 271 270 270 269 269 269 269 269 268 268 268 268 268 268 268 268 267 265 264 264 264 263 263 263 264 264 264 265 266 266 267 268 269 269 269 269 269 268 268 268
279 278 278 277 277 276 276 275 274 274 274 274 274 274 274 274 274 274 274 273 273 273 273 273 274 274 274 273 273 272 271 271 271 271 271 272 272 272 272 272 272 272 271 271 271 271 270 270 269 269 269 268 268 268 268 268 268 268 268 268 268 267 266 264 263 263 262 262 263 264 264 264 265 265 266 266 267 268 268 268 269 268 268 268 268
278 277 276 276 275 275 274 274 274 274 274 274 274 274 274 275 275 274 274 273 273 273 274 275 275 275 274 273 273 273 272 272 272 272 272 272 272 272 272 272 271 271 271 271 271 270 270 270 269 269 269 268 268 268 268 268 268 268 268 268 268 267 267 265 264 262 262 262 262 263 264 264 264 265 265 266 267 267 268 268 268 268 268 268 268
276 276 275 275 274 274 273 273 273 273 273 273 273 273 274 274 273 273 274 274 274 274 274 274 274 274 273 273 273 272 272 272 272 271 271 272 271 271 271 271 270 270 270 270 270 270 270 269 269 269 269 269 268 268 268 268 268 268 268 268 268 267 267 266 264 262 262 262 262 263 264 265 264 264 265 266 266 266 267 267 267 267 268 268 268
276 275 274 274 273 273 273 273 272 272 272 272 272 272 273 272 272 273 274 274 274 274 274 274 273 273 272 272 271 270 270 271 271 271 271 271 271 271 271 270 270 270 270 270 270 270 269 269 269 269 269 269 268 268 268 268 267 267 267 267 267 267 267 266 264 263 262 262 263 263 264 265 265 265 265 265 266 266 266 267 267 267 267 267 268
275 274 273 273 272 272 272 272 272 271 272 272 272 271 272 271 272 272 272 272 272 272 273 273 273 271 271 270 269 269 269 270 271 271 271 271 271 271 270 270 270 269 269 269 269 269 269 269 269 269 269 269 268 268 267 267 267 267 267 267 266 267 266 266 264 263 262 262 262 263 264 265 265 265 265 265 265 265 266 266 267 267 267 267 267
273 272 272 272 272 271 271 271 271 271 271 271 271 271 271 271 271 272 272 272 271 271 271 271 271 271 270 270 269 269 270 271 271 271 271 271 271 270 270 270 269 269 269 268 268 268 268 268 268 269 269 268 268 267 266 266 266 266 266 266 265 266 266 265 264 263 262 262 262 263 263 264 265 265 265 265 265 265 266 266 267 266 267 267 267
273 272 271 271 271 271 271 271 270 270 270 270 270 271 271 271 271 271 271 271 271 271 271 271 271 271 271 271 270 270 271 272 272 271 271 270 270 270 270 269 268 268 268 267 267 267 267 267 267 268 268 268 267 267 266 266 266 266 265 265 265 265 265 264 263 262 262 262 262 262 263 264 265 265 265 266 266 266 266 266 267 267 267 267 267
272 272 271 270 270 270 270 270 270 269 269 269 269 269 269 270 270 270 270 270 270 270 271 271 271 271 271 271 271 272 272 272 271 271 270 270 270 270 269 268 268 268 267 267 266 266 266 266 266 267 267 267 267 266 266 265 265 265 265 265 265 265 264 264 263 262 262 262 262 262 263 263 264 265 266 266 266 266 266 266 267 267 267 267 267
272 271 270 270 269 269 269 269 269 269 269 269 269 269 269 269 269 268 269 269 269 269 269 270 270 270 271 271 271 271 271 271 270 270 270 270 269 269 268 268 268 267 267 267 266 266 265 265 266 266 266 266 266 265 265 265 265 265 265 264 264 264 264 264 263 263 262 262 262 262 263 263 264 265 265 266 266 266 266 266 267 267 267 267 267
271 270 269 269 269 269 269 269 268 269 268 268 268 268 268 268 268 268 268 268 268 268 269 269 269 270 270 270 270 270 270 270 269 269 269 269 269 268 268 268 267 267 267 267 266 266 265 265 265 265 265 265 265 265 265 265 265 265 265 264 264 264 263 263 263 263 262 261 261 262 262 263 264 265 265 265 266 266 266 267 267 267 267 267 267
270 269 269 268 268 268 268 268 268 268 268 268 268 268 268 268 268 268 268 268 268 268 268 268 268 269 269 269 269 269 269 269 269 269 269 269 269 268 267 267 267 267 267 267 266 266 265 265 265 265 265 265 265 265 265 265 265 265 265 264 264 263 263 263 263 263 262 261 261 262 262 263 264 264 265 265 265 266 266 267 267 266 266 266 266
270 269 268 268 267 267 267 267 267 268 268 268 268 268 268 268 268 267 267 267 267 267 267 268 268 268 269 269 269 269 269 269 269 269 269 269 268 267 267 267 267 267 267 267 266 266 265 265 266 265 265 265 264 264 264 265 265 265 264 264 264 264 263 263 262 262 261 261 261 261 261 262 263 264 264 265 265 265 266 266 266 266 266 266 266
Wind_Speed
21 23 23 24 25 25 26 26 26 26 26 26 26 25 24 24 23 23 22 21 20 19 18 18 18 18 17 16 16 16 16 15 15 15 16 16 15 14 13 11 10 9 8 7 5 4 4 3 4 5 6 8 9 9 10 11 12 13 12 13 14 11 12 15 12 21 42 43 35 36 36 35 38 37 37 43 45 44 43 41 41 42 41 41 43
22 23 24 24 25 26 26 26 26 26 26 26 25 24 24 24 24 23 22 21 20 20 20 20 19 19 18 18 18 18 18 18 17 16 16 15 15 13 11 10 9 8 7 5 4 4 3 4 6 8 9 10 12 12 13 14 14 15 15 14 16 15 13 17 19 18 32 45 42 37 37 34 35 37 38 39 43 46 46 43 41 42 41 41 41
23 24 24 25 26 26 26 26 27 27 26 25 24 24 24 24 24 23 22 21 20 20 21 21 20 20 21 20 20 20 19 19 18 16 15 14 13 12 10 9 8 7 5 5 4 4 5 6 8 10 11 12 13 13 13 14 14 14 15 15 15 17 15 15 21 21 26 40 44 39 37 37 36 36 38 39 40 41 44 45 43 43 43 41 40
23 24 25 25 26 26 26 26 26 26 26 25 25 25 25 25 24 22 21 22 22 22 22 22 22 23 23 22 22 21 19 19 17 15 14 13 12 11 9 8 7 5 5 4 4 5 7 8 9 11 12 12 13 13 13 14 15 15 16 17 16 17 18 17 19 23 26 34 41 41 37 38 39 37 38 40 40 39 42 44 44 44 45 44 43
23 24 25 25 25 26 25 25 25 25 25 25 26 26 26 25 23 22 23 24 24 24 24 24 24 24 23 23 22 20 19 17 16 15 13 12 11 10 9 7 6 5 4 4 5 6 7 9 10 11 12 13 14 15 16 16 16 17 16 18 18 18 19 20 20 23 25 28 37 42 41 39 39 38 35 35 40 42 43 45 45 43 45 46 46
23 24 25 25 25 25 25 25 25 26 26 27 26 26 25 24 24 24 26 27 27 27 26 25 25 24 23 22 21 20 18 16 15 14 12 11 10 9 8 7 5 4 3 4 5 6 7 8 10 11 11 13 14 15 16 16 16 17 18 18 19 19 20 21 21 22 24 27 31 37 41 39 39 39 36 33 37 39 39 43 48 47 46 49 51
23 23 24 24 25 25 26 26 27 27 27 27 26 26 25 25 26 27 28 29 30 29 28 27 25 24 23 22 21 19 18 16 14 13 11 10 9 8 7 5 3 3 3 3 4 6 7 7 9 10 11 12 13 13 14 16 16 16 17 18 18 19 20 21 21 21 23 26 27 29 34 37 36 37 39 38 37 36 32 34 43 49 50 52 55
23 23 24 25 26 27 27 27 27 27 27 27 26 27 27 28 29 30 30 31 31 30 29 28 26 25 23 22 21 19 17 15 13 12 11 9 8 7 5 3 2 2 2 4 5 5 7 8 9 10 11 10 10 11 12 13 15 15 16 16 17 19 20 20 21 22 23 24 25 26 29 34 35 36 39 38 33 33 34 33 36 43 47 50 55
25 25 26 27 28 28 28 27 27 27 27 28 28 28 30 31 32 32 32 31 31 29 29 28 26 25 24 22 20 18 16 15 13 11 10 8 7 5 3 1 1 2 3 4 5 6 7 9 9 10 10 10 9 10 11 11 12 14 15 16 17 19 20 21 21 22 24 24 24 25 26 29 31 32 34 33 31 36 41 39 37 40 44 47 53
26 27 27 27 28 28 28 27 28 28 29 30 31 31 32 33 33 33 33 32 31 30 29 27 26 25 24 22 20 18 16 14 12 10 9 7 5 3 1 1 2 4 5 5 6 7 8 9 10 10 10 10 11 11 11 11 10 11 13 14 16 19 21 23 23 22 24 25 25 25 24 26 30 31 31 34 37 39 42 41 38 41 42 38 43
27 27 27 27 28 28 29 29 29 30 31 32 34 34 35 35 35 34 33 32 31 30 29 27 25 24 22 21 19 17 15 13 12 10 8 6 4 2 0 2 3 4 5 6 7 8 9 10 10 10 11 11 12 12 12 12 11 12 13 13 15 17 19 22 24 23 24 25 26 26 23 25 32 35 34 36 38 39 41 42 39 37 36 27 25
29 29 29 29 30 30 31 32 32 33 34 35 36 36 36 36 36 35 35 33 32 30 29 27 25 23 21 20 18 17 15 13 11 9 7 5 3 1 1 2 3 4 5 6 7 8 9 10 10 11 11 11 12 13 14 14 13 13 14 14 15 16 17 19 22 24 26 27 29 29 26 26 32 36 36 36 38 40 41 42 40 36 34 29 23
31 31 31 31 33 33 34 35 36 37 38 38 38 38 38 37 37 36 35 34 32 31 29 26 25 22 20 19 18 16 15 13 10 8 6 4 2 1 2 3 3 4 5 5 7 8 9 10 11 11 11 12 12 13 15 17 16 15 16 17 18 18 17 18 19 21 24 26 29 32 31 31 33 37 39 37 37 39 38 38 41 38 37 36 36
32 32 33 34 35 36 36 38 39 39 40 39 39 39 39 38 37 36 35 34 32 30 28 26 24 22 20 19 18 16 14 12 9 7 5 3 2 1 2 3 3 3 4 5 6 8 9 10 11 11 12 13 13 14 16 18 19 19 20 20 21 21 20 21 21 20 22 24 27 32 35 34 35 38 40 39 37 37 37 38 40 40 41 44 46
32 33 34 35 37 38 38 39 39 39 40 40 40 40 39 38 37 36 34 33 31 30 28 26 24 22 20 19 17 15 13 10 8 6 4 3 2 2 2 3 2 3 4 4 6 8 8 9 10 12 13 14 13 14 16 19 20 22 23 22 22 23 22 22 22 22 23 25 26 30 33 34 36 37 38 38 37 37 38 40 40 40 41 43 44
30 31 33 35 36 38 38 38 38 39 40 39 39 39 38 37 37 35 34 32 30 28 26 25 24 22 20 18 16 15 12 9 8 6 4 3 2 2 2 2 2 3 4 5 7 8 8 9 10 11 13 14 14 14 16 19 21 23 25 24 24 24 24 23 22 22 23 25 26 29 31 33 34 34 34 35 34 36 38 38 38 37 36 33 32
29 31 32 34 36 38 38 39 39 40 40 40 39 39 38 37 36 35 34 32 29 28 26 24 23 21 20 17 15 13 12 9 7 5 3 3 2 2 2 2 3 4 5 6 8 9 8 8 9 11 13 14 14 16 17 19 22 23 25 27 27 27 26 25 25 24 24 24 26 28 29 29 29 30 32 32 31 32 33 33 34 34 31 24 19
31 33 35 36 38 38 39 40 40 41 41 40 40 39 38 38 36 34 34 32 30 28 26 24 22 19 18 16 14 12 11 9 7 5 3 3 3 1 2 3 4 5 7 7 8 8 8 8 9 10 12 13 15 17 18 19 21 22 24 27 28 28 29 30 32 32 30 29 28 28 27 27 28 30 31 29 27 27 28 30 33 33 28 22 18
36 37 37 37 38 38 38 39 39 40 41 40 39 39 38 37 35 33 33 32 30 28 26 24 22 19 17 15 13 12 10 8 7 5 3 3 3 2 2 4 5 6 8 8 8 8 8 9 9 9 10 13 15 17 17 18 19 21 22 24 26 29 31 33 34 34 35 35 34 33 33 33 32 31 31 30 28 27 27 28 30 31 28 27 27
37 37 36 36 37 37 37 38 38 39 40 39 38 38 37 36 34 33 31 30 29 27 25 23 21 19 16 14 12 11 10 8 7 5 4 2 2 3 3 5 5 7 8 9 9 8 8 8 10 9 11 13 15 15 15 16 17 17 18 20 24 27 31 32 32 30 32 34 34 35 37 37 35 34 33 33 33 33 32 30 30 31 31 31 33
35 36 36 37 38 38 38 39 39 39 39 39 38 37 35 35 34 32 31 29 28 26 24 22 21 18 16 14 12 10 9 8 7 6 4 2 1 3 4 5 5 7 8 8 7 6 6 8 10 10 11 13 13 13 14 14 14 14 16 18 20 23 26 28 29 29 30 33 34 35 35 36 38 39 38 38 39 39 38 37 35 35 35 33 35
34 36 36 36 38 38 38 38 38 39 39 39 38 36 34 33 32 31 30 29 27 26 24 22 20 18 15 13 11 10 9 8 7 6 4 3 2 2 3 4 4 6 7 6 6 6 6 7 10 11 11 12 11 12 12 12 12 13 15 16 18 20 21 23 25 28 30 32 33 33 34 36 39 41 42 42 43 43 43 42 40 39 37 36 35
33 33 33 34 35 35 36 36 37 37 37 37 37 36 33 32 31 30 30 29 27 26 24 22 20 18 16 13 11 10 9 8 7 5 4 3 2 1 2 3 3 4 5 5 5 5 6 8 10 10 10 10 10 11 11 11 11 13 14 15 16 17 19 21 24 26 28 29 29 31 33 35 36 38 40 41 43 45 45 43 41 40 39 39 39
30 31 31 32 33 33 34 34 35 36 36 36 35 34 33 32 31 30 29 29 28 26 24 22 20 18 16 14 12 10 9 7 6 5 5 5 3 2 1 2 2 3 4 4 4 5 6 7 8 8 9 9 10 11 12 12 12 13 14 15 16 17 19 21 23 24 25 26 28 30 32 33 34 35 37 38 40 43 44 42 39 39 39 39 39
31 32 32 32 33 34 33 33 34 35 36 36 36 35 34 33 32 30 29 29 28 26 25 23 20 19 17 14 12 10 9 8 7 7 6 6 4 3 3 2 2 2 3 3 3 4 5 5 6 8 8 9 10 11 13 13 14 15 16 16 18 19 20 20 22 23 24 26 27 30 32 34 34 33 33 35 37 39 42 43 42 41 40 39 39
33 33 34 34 35 35 35 34 34 34 35 35 35 35 36 35 33 32 30 28 27 26 25 23 21 19 16 14 13 12 11 10 9 8 7 6 5 4 4 2 2 2 2 2 2 3 5 6 7 7 7 8 10 12 14 15 16 17 18 19 20 20 20 20 22 24 25 26 27 29 32 34 34 33 31 32 34 36 38 40 42 42 41 41 40
34 34 35 36 36 36 37 36 36 35 35 34 33 34 34 35 34 33 31 29 27 26 25 24 21 19 17 15 15 14 13 12 11 9 8 6 5 5 3 1 1 2 1 1 3 6 6 6 5 5 6 8 10 12 14 16 18 20 21 20 20 20 19 19 21 22 23 25 27 29 31 31 31 31 31 31 33 35 36 36 38 39 40 39 37
34 35 35 36 36 37 37 37 37 36 35 34 34 34 34 34 34 34 32 31 29 28 26 24 21 20 20 20 19 17 15 15 13 11 9 8 6 5 4 2 3 2 1 1 5 6 5 3 3 5 7 9 11 13 15 17 19 21 22 21 21 20 20 20 21 22 22 24 26 27 29 30 30 30 30 31 32 34 35 35 35 36 37 35 30
33 33 34 34 35 35 35 36 37 37 36 34 34 34 34 34 33 32 31 30 28 25 22 21 23 23 23 23 21 19 18 16 13 10 9 9 7 7 5 4 4 3 2 3 5 3 3 3 5 8 10 12 14 15 17 19 20 21 22 22 21 21 22 22 23 23 23 23 24 25 27 28 28 29 30 31 32 32 33 34 34 34 34 32 28
31 32 33 33 34 35 35 35 35 36 36 36 34 32 30 30 30 29 29 27 25 22 20 21 23 24 23 22 20 17 16 14 12 10 10 9 8 8 6 5 5 4 3 3 3 3 3 5 7 9 11 13 14 15 17 19 21 21 22 22 21 21 22 23 23 24 24 23 23 24 25 26 27 29 31 32 33 33 33 33 33 33 32 31 29
32 32 34 35 36 36 36 36 36 36 36 37 36 33 29 26 25 25 25 24 23 23 22 22 22 22 22 21 19 17 14 13 12 11 11 10 9 8 7 6 6 5 4 3 3 3 3 5 6 8 9 11 12 14 16 17 18 20 20 21 21 21 21 22 23 24 24 23 23 23 24 24 26 28 30 30 31 33 34 34 32 31 31 30 28
34 34 36 36 36 37 37 37 37 36 36 36 35 34 32 28 24 21 22 22 22 22 22 22 22 22 21 20 19 18 16 15 13 12 12 11 10 9 7 7 6 5 4 3 4 4 3 4 5 6 8 9 11 12 14 15 16 18 18 20 21 21 21 22 22 22 22 22 23 24 24 24 25 26 27 27 28 31 33 32 31 32 31 30 28
36 36 36 36 35 36 36 36 37 38 39 39 37 35 35 34 30 25 21 19 18 18 19 20 20 19 19 18 17 16 15 14 13 12 12 11 10 9 8 7 7 6 5 5 5 4 3 3 4 5 6 7 9 10 12 13 15 16 17 18 19 20 20 21 21 21 21 21 22 24 24 25 26 26 26 26 28 29 30 30 30 31 30 28 27
35 35 36 37 37 37 37 38 40 40 42 42 40 38 37 36 35 32 28 23 20 19 19 19 18 17 15 15 15 15 14 13 13 13 12 12 11 10 10 9 7 6 6 6 6 5 3 2 2 2 4 5 6 8 10 12 13 15 16 17 18 19 20 20 20 21 22 22 23 23 24 25 26 27 27 28 28 28 28 28 28 29 29 27 25
33 32 33 35 37 37 38 39 40 40 41 41 40 38 36 34 34 35 35 33 31 28 25 22 19 18 18 17 15 14 14 13 13 13 13 13 12 12 12 12 10 8 7 7 7 6 4 2 1 1 2 4 5 6 8 10 12 13 15 16 17 18 19 20 20 21 22 23 23 23 24 25 26 27 27 28 28 27 28 28 27 27 27 26 24
32 31 32 34 36 36 36 37 38 39 41 41 39 36 34 32 33 33 33 31 30 29 28 26 22 20 20 20 17 15 15 15 15 15 14 14 13 12 13 13 11 10 9 8 7 6 4 3 1 1 1 2 3 5 7 8 10 11 13 14 15 16 18 19 20 22 23 23 23 23 25 26 27 28 27 25 25 26 27 27 27 27 26 25 24
34 34 34 34 35 35 34 34 36 38 39 38 36 33 31 30 30 30 28 28 28 28 28 29 27 23 22 22 20 17 16 16 15 15 15 15 14 13 13 12 12 12 11 9 7 6 5 4 3 1 1 2 2 4 5 7 9 10 11 12 13 14 16 18 20 21 22 23 23 24 25 26 27 28 26 23 23 26 27 26 27 27 26 25 23
35 35 35 34 34 34 34 33 33 34 35 35 34 33 32 30 29 29 29 28 28 28 29 30 30 28 27 27 25 21 19 18 18 17 17 17 15 14 13 13 13 13 12 10 8 7 6 5 4 3 2 3 3 4 5 6 8 9 10 12 13 14 15 17 19 21 22 23 24 24 25 26 26 27 26 23 22 25 26 26 25 25 25 25 23
34 34 34 33 33 33 33 32 32 32 33 34 34 33 32 31 30 31 31 29 28 30 31 32 32 32 31 29 28 25 24 23 23 22 21 18 15 14 14 14 14 13 12 10 9 8 7 6 5 4 4 4 4 5 5 6 7 9 10 11 13 14 15 17 19 20 21 22 24 24 25 25 25 26 25 23 22 24 26 26 25 24 23 24 23
34 34 33 31 31 32 32 31 31 32 33 35 35 34 33 34 34 34 33 31 31 32 34 35 35 34 32 30 30 30 29 28 26 24 21 18 17 16 16 15 14 14 12 11 9 9 8 8 7 5 5 5 5 6 6 7 8 9 10 11 12 13 14 15 17 18 20 21 23 25 25 25 24 25 25 24 23 24 25 25 24 23 23 22 23
33 33 32 31 31 31 30 31 33 34 35 36 36 36 36 37 36 35 34 33 33 34 35 36 36 34 32 30 30 30 30 28 25 23 21 19 18 18 17 16 15 14 13 11 10 10 10 9 8 7 6 6 6 7 7 7 8 9 10 11 12 13 13 14 15 17 19 21 22 24 25 25 24 23 24 24 24 24 24 24 24 24 23 22 22
32 32 32 31 31 31 31 33 34 34 34 35 35 37 37 36 34 35 36 36 34 35 36 36 35 33 33 31 30 29 29 26 24 23 22 21 21 20 18 17 16 15 14 12 12 12 12 11 10 9 8 8 8 8 9 9 9 9 10 11 12 12 13 13 13 16 18 20 22 24 25 25 24 23 23 23 23 23 24 24 24 24 23 22 21
32 32 31 31 31 32 33 33 32 32 33 35 35 35 35 33 32 34 36 36 35 36 38 38 36 34 33 31 29 28 27 26 25 24 23 23 22 21 19 18 17 16 15 14 13 13 14 13 12 11 10 9 10 10 10 10 10 10 10 11 12 13 13 12 12 14 17 19 22 24 25 25 24 24 23 22 22 23 23 23 24 24 23 21 20
31 31 30 30 31 31 32 32 31 32 34 35 34 33 33 32 32 33 34 35 35 35 37 38 37 36 35 33 30 28 28 28 27 26 25 24 22 21 19 18 18 17 16 15 15 15 15 15 14 12 12 11 12 12 12 11 11 11 11 12 12 13 13 13 12 12 15 18 22 24 25 25 24 24 23 22 22 23 23 22 23 24 23 21 20
29 29 29 29 30 31 32 32 32 33 33 33 34 34 34 35 35 35 35 37 36 34 35 37 37 37 37 36 34 33 32 31 29 27 26 25 23 21 20 19 19 18 17 16 16 16 16 16 15 14 13 13 13 14 14 13 12 12 12 13 13 13 13 13 12 12 13 16 20 22 24 24 23 23 23 23 22 22 22 21 21 22 22 21 20
28 28 28 28 29 30 31 31 31 31 32 35 37 38 37 37 38 37 37 38 37 37 37 39 39 38 38 37 36 35 34 31 30 28 27 25 23 22 21 21 20 19 18 17 17 18 18 17 16 15 14 14 15 16 16 15 14 13 13 13 14 14 14 13 12 12 12 14 17 20 22 22 22 22 22 22 22 21 21 20 20 20 20 20 19
28 29 29 29 29 30 30 30 30 31 32 34 36 37 37 38 38 37 37 37 37 37 38 39 40 39 37 37 37 36 34 32 30 29 27 25 24 22 22 22 22 21 20 19 18 19 19 19 18 16 15 15 17 18 18 17 16 15 15 15 15 15 15 14 13 12 12 12 15 18 19 20 20 20 21 21 21 20 20 20 19 18 18 17 17
28 29 29 30 30 30 30 30 30 31 32 33 34 34 35 35 35 35 35 35 35 36 37 39 40 39 37 36 36 35 34 31 29 28 27 25 24 23 23 23 23 22 21 20 20 20 20 19 18 17 16 17 17 18 19 18 17 17 17 17 16 16 16 15 15 14 12 12 15 17 17 17 18 19 19 19 19 19 19 19 18 17 17 16 15
28 29 29 30 30 30 30 30 31 32 32 32 32 33 34 34 34 35 35 35 35 35 37 39 39 39 38 36 35 34 33 31 29 28 28 26 25 24 24 24 23 23 22 21 20 20 20 19 18 17 17 18 18 19 19 18 18 18 18 17 17 17 17 17 16 14 12 12 15 17 16 15 16 16 17 17 18 18 18 18 18 17 16 15 14
28 29 29 30 30 30 30 30 31 32 32 32 32 33 34 34 35 35 36 36 35 35 35 37 38 38 37 36 35 34 33 31 30 30 28 27 25 25 25 24 24 24 22 21 21 20 20 19 18 18 19 19 20 20 20 20 19 19 18 18 18 18 18 18 17 14 12 14 16 17 15 14 15 15 15 15 16 16 17 17 17 17 16 15 14
28 29 30 30 30 30 29 29 30 31 32 33 34 33 33 34 34 34 34 36 36 34 34 35 36 36 36 35 35 34 33 32 31 30 28 27 26 25 25 25 25 24 23 22 22 22 21 20 20 20 21 21 21 21 21 21 20 20 20 19 19 18 18 17 17 15 15 16 16 16 15 14 14 14 14 14 14 15 16 16 17 17 16 15 14
Wind_Direction
201 200 198 197 196 193 193 193 193 193 193 194 196 196 197 198 197 196 193 190 192 195 198 197 194 189 183 179 174 169 164 154 147 144 137 130 127 123 121 118 108 101 97 90 84 72 55 33 6 360 5 4 2 3 0 359 358 354 355 349 339 342 324 300 282 290 301 305 307 310 317 321 322 325 326 325 324 324 323 321 321 320 319 318 316
194 194 192 191 192 190 189 189 189 189 189 189 192 193 193 194 193 192 190 191 196 198 195 189 184 180 174 169 163 157 152 146 142 141 138 133 130 126 122 116 107 102 98 90 83 67 37 17 4 358 1 1 358 359 357 354 353 348 347 348 337 337 336 313 300 293 299 305 309 312 318 322 321 323 326 324 322 323 322 321 321 320 319 318 317
190 190 188 186 187 186 185 185 184 186 187 188 191 192 192 191 191 192 192 193 193 191 186 179 173 169 163 158 154 150 146 143 142 143 140 136 132 127 122 115 109 104 99 89 68 43 24 9 1 355 354 356 354 352 353 349 348 346 342 343 338 332 334 324 308 299 298 303 308 313 318 321 321 322 323 321 320 321 320 320 321 321 319 319 317
187 186 185 184 183 183 183 182 183 185 187 189 189 188 188 188 189 193 193 189 184 180 176 170 165 161 156 153 150 149 147 145 145 144 141 137 133 127 120 116 111 102 90 71 41 19 9 360 354 351 347 349 350 348 350 349 345 345 342 339 339 333 329 326 313 304 300 301 305 310 315 318 318 319 322 321 321 321 319 319 320 320 320 319 317
189 187 187 185 183 184 185 185 186 187 187 187 186 185 186 186 189 191 188 181 174 170 166 163 160 157 154 153 151 149 148 148 148 146 142 138 132 126 121 116 110 97 74 42 21 4 357 352 347 348 346 345 350 349 348 349 343 341 342 338 336 333 327 323 317 310 302 297 302 308 313 315 315 317 321 323 322 321 321 321 320 319 319 319 317
190 189 188 186 185 186 187 187 188 188 187 185 184 184 185 186 186 184 179 172 166 164 161 159 159 157 154 153 152 150 149 150 150 146 142 138 131 126 123 119 111 93 58 23 8 351 346 348 344 347 350 346 350 351 344 344 341 337 338 337 333 331 326 322 319 312 304 298 300 306 310 314 316 316 320 323 321 319 320 321 321 321 322 320 318
190 190 190 189 188 187 187 187 187 186 185 184 184 184 183 183 180 176 172 167 163 161 160 159 159 158 156 155 154 153 153 152 151 146 141 137 131 128 128 124 114 84 40 2 353 344 339 346 347 349 354 351 349 348 341 338 337 334 334 334 332 329 325 321 319 313 307 303 303 304 308 312 313 314 317 322 322 319 320 321 320 320 321 320 317
194 193 193 191 190 188 187 187 187 186 185 183 182 181 179 178 174 170 168 165 162 161 161 160 160 159 158 158 156 156 156 154 151 147 142 138 136 136 139 132 110 56 22 348 340 342 340 346 353 353 354 355 348 341 338 335 331 329 330 332 331 328 324 321 320 316 311 307 305 306 308 309 311 315 319 324 325 322 322 320 314 314 317 317 315
192 191 191 190 188 187 186 186 186 185 184 181 179 178 175 172 170 167 166 164 162 162 162 162 162 160 159 159 158 157 158 155 151 149 146 145 148 148 146 131 40 355 351 345 336 337 344 350 357 360 354 351 345 337 334 333 329 328 331 333 331 328 324 321 320 317 313 309 308 311 311 308 310 316 320 323 322 318 318 317 312 311 314 313 313
191 189 189 189 188 187 186 186 184 183 181 179 176 174 171 169 168 166 165 164 163 163 164 164 164 163 161 160 159 158 158 156 152 153 153 153 156 153 149 329 343 339 333 337 335 338 351 358 358 358 352 346 343 339 336 336 337 333 331 331 330 326 324 320 318 317 313 310 310 313 312 307 309 315 315 316 317 315 316 316 313 314 315 312 312
193 192 191 191 189 187 186 184 182 181 179 177 175 172 171 169 167 166 165 165 165 165 165 165 164 165 163 160 161 159 157 157 155 157 160 160 165 169 145 332 334 333 330 335 340 345 354 359 358 353 349 346 342 340 343 346 344 336 330 329 325 322 320 317 316 315 312 309 308 309 307 303 307 312 313 314 316 315 315 314 312 312 313 311 310
194 194 193 192 189 187 185 183 181 180 178 176 174 172 171 169 167 167 167 166 166 166 166 166 164 165 164 162 161 160 158 159 158 160 167 166 172 201 332 334 329 329 334 339 345 352 355 355 354 350 345 346 344 346 352 350 341 331 327 325 321 316 314 311 311 312 310 308 306 304 303 304 305 309 312 313 314 314 314 313 312 312 311 309 306
194 193 192 191 189 186 185 182 180 180 178 176 175 172 171 170 169 170 169 168 168 167 166 166 164 165 166 164 163 160 158 158 159 164 174 179 185 244 316 322 324 328 338 348 350 355 357 349 347 347 345 348 353 355 355 348 338 329 325 324 323 318 313 309 307 306 304 304 301 300 302 305 304 305 310 313 313 314 314 312 313 314 311 308 305
193 193 191 190 188 185 184 182 180 179 177 176 175 173 173 172 171 171 170 169 169 168 167 166 165 166 169 168 164 160 158 158 163 171 179 191 222 275 309 318 330 339 350 1 357 358 357 347 345 348 349 353 359 357 350 342 334 329 326 325 324 321 317 314 313 309 306 303 298 298 302 305 304 305 310 314 314 314 312 311 311 312 309 306 305
193 193 191 189 187 184 183 181 180 178 177 176 175 174 174 172 171 171 171 170 170 169 168 168 168 169 170 170 165 159 158 161 167 178 190 204 249 290 308 322 346 9 10 5 358 1 359 352 353 353 350 355 357 349 340 335 330 327 326 324 324 323 320 318 317 314 310 307 301 300 303 306 307 308 311 314 314 312 311 309 309 309 307 305 306
192 192 190 188 186 185 183 181 180 179 177 176 175 175 174 173 172 172 171 171 170 170 170 171 172 172 171 170 168 161 159 166 171 179 201 217 250 286 314 350 7 10 10 4 2 8 7 359 356 350 349 356 353 340 334 332 329 328 326 325 323 322 321 321 320 316 312 309 307 306 306 307 309 309 310 313 312 312 313 312 312 313 310 306 306
194 193 191 190 188 186 184 183 181 180 178 178 176 176 175 174 174 174 173 171 171 171 173 172 173 175 172 170 170 165 161 168 174 180 206 230 248 278 321 358 6 2 7 10 8 12 12 1 353 349 353 358 348 336 334 333 331 330 328 326 325 324 325 326 325 320 315 312 310 309 309 310 311 311 312 314 315 317 319 317 316 317 313 307 306
196 195 194 193 190 188 187 185 183 181 179 179 178 177 177 176 175 176 176 175 174 174 175 173 171 173 173 170 171 171 167 168 172 176 199 238 261 280 327 352 7 6 6 11 11 11 10 2 358 355 354 351 340 335 335 334 334 332 329 327 328 327 329 331 329 325 321 319 319 317 316 316 316 315 317 317 319 323 322 316 315 314 311 308 307
199 197 196 194 192 190 188 187 185 182 181 181 180 178 178 177 177 177 178 178 175 174 174 174 171 170 172 172 170 172 172 169 171 175 184 227 279 306 327 351 8 7 4 6 6 5 4 1 358 351 343 341 336 334 336 337 335 331 330 332 332 330 330 330 327 325 324 324 326 326 325 326 326 325 325 325 325 327 324 319 317 315 311 309 309
200 198 196 194 193 191 190 188 187 184 182 182 181 180 179 178 178 177 178 178 175 173 173 174 172 170 172 173 172 173 175 173 172 174 177 201 289 310 328 360 10 3 2 2 359 359 357 353 354 346 336 337 337 335 338 340 334 332 338 341 335 328 327 325 324 326 326 325 327 327 328 330 331 331 331 331 332 333 332 328 326 321 315 310 308
199 197 196 195 193 192 191 190 188 186 184 183 182 181 181 180 179 178 178 177 175 173 172 173 174 172 172 174 175 174 176 178 178 176 178 185 256 305 334 9 10 354 358 0 352 347 339 338 348 345 335 336 339 340 342 342 340 344 348 343 332 328 327 325 325 329 329 327 328 329 330 332 333 334 336 336 336 337 335 333 331 327 321 314 309
198 197 196 195 194 192 192 191 189 187 186 184 182 181 180 180 180 179 178 177 175 173 173 174 174 172 172 175 178 178 180 182 180 180 190 203 224 301 342 11 2 344 351 351 336 329 326 335 343 339 334 339 344 345 347 349 352 354 349 341 336 335 334 331 331 332 332 330 330 331 333 335 336 336 337 337 337 337 335 333 333 331 327 321 316
197 195 194 194 193 192 191 190 189 187 186 184 182 180 178 178 179 179 179 177 176 174 173 174 174 173 173 176 179 183 185 185 186 194 209 221 231 279 335 356 349 336 331 321 320 325 327 334 341 338 337 343 344 348 358 3 360 356 351 348 347 345 344 342 340 337 334 333 333 332 333 336 336 334 334 334 333 333 333 332 333 332 330 328 325
194 193 193 192 192 192 191 190 189 188 186 184 182 179 178 178 178 179 180 179 177 176 175 176 177 176 176 179 182 187 189 191 203 217 221 226 233 243 279 310 323 316 303 304 328 336 326 331 340 336 332 338 346 358 9 12 7 4 2 360 360 1 358 352 345 340 336 335 334 333 332 334 333 331 330 330 330 330 331 331 332 333 332 331 330
193 193 192 192 192 191 190 189 190 189 186 185 184 182 180 179 178 179 180 180 180 179 178 179 181 182 183 185 187 191 199 208 218 222 223 227 230 231 245 257 262 277 292 315 340 338 326 327 330 325 327 342 358 8 13 15 16 15 12 11 12 12 6 355 347 342 338 336 334 331 330 331 332 330 328 327 328 330 332 332 333 335 336 334 333
192 192 192 193 192 191 189 188 188 188 187 187 187 185 184 182 181 180 180 181 182 182 181 182 184 186 189 193 196 201 208 215 219 218 222 228 228 232 243 241 231 257 300 333 311 303 312 315 313 321 345 5 11 12 12 13 16 17 16 15 15 14 6 355 348 344 339 335 332 329 329 331 332 331 330 329 330 333 334 333 333 335 338 337 335
192 191 192 192 191 190 189 187 186 186 186 186 186 186 186 185 184 182 181 182 183 183 184 185 186 190 196 201 206 209 211 214 214 212 218 227 230 235 240 222 229 262 18 19 276 289 309 315 319 345 10 16 13 12 13 12 12 12 13 14 14 11 5 355 349 345 339 334 331 329 331 333 332 331 331 331 332 334 336 335 333 334 336 337 335
193 193 192 191 190 189 188 186 185 185 185 186 187 187 187 187 187 188 188 189 188 187 187 191 198 205 208 208 207 206 207 211 214 213 215 219 223 228 218 196 214 225 131 252 272 291 315 325 348 4 6 8 9 9 10 11 9 8 7 9 10 7 2 357 353 348 342 336 332 331 332 333 333 332 332 332 334 336 338 338 336 334 336 338 336
194 193 191 190 189 188 188 187 187 185 185 187 188 189 190 190 191 192 193 193 193 195 202 212 215 214 212 211 209 208 209 211 213 216 219 216 215 218 212 202 209 209 208 254 275 293 315 332 355 3 3 6 8 6 6 6 5 4 3 4 4 2 360 358 353 348 343 339 334 331 331 331 331 332 333 333 334 338 340 339 338 337 338 339 337
192 192 191 191 190 189 189 188 188 188 187 186 187 188 190 192 194 194 193 194 200 208 218 224 221 214 211 212 211 212 214 212 208 210 215 213 209 210 208 201 209 220 229 252 277 292 313 341 1 6 5 6 5 2 2 360 357 356 357 359 0 358 356 355 352 346 343 340 335 332 331 331 331 333 334 334 334 337 340 341 340 341 341 340 336
191 192 193 193 193 192 191 190 190 190 190 189 187 185 185 188 193 196 196 200 207 210 211 213 213 211 211 211 209 206 206 203 203 209 212 209 206 208 208 205 214 230 237 244 266 294 322 347 1 3 3 5 2 358 358 356 351 349 350 353 355 354 352 351 349 346 344 341 337 335 335 334 333 334 334 333 333 336 339 341 342 343 343 341 337
195 195 196 196 195 194 194 192 191 191 189 188 187 184 181 181 184 191 198 203 206 207 206 208 210 209 208 207 206 204 200 197 201 208 209 208 208 208 207 210 223 237 244 249 264 287 319 340 352 360 1 0 359 356 354 351 347 347 349 349 349 349 349 348 347 346 345 342 338 337 338 337 336 334 333 333 333 335 337 339 342 344 343 342 340
201 200 199 197 197 197 196 195 194 193 191 188 187 186 184 182 180 182 187 194 200 205 207 208 207 205 204 205 205 203 199 197 200 202 203 208 210 205 203 209 223 236 246 254 261 271 291 317 341 359 358 356 357 354 351 348 347 349 350 347 345 346 346 347 348 348 347 343 341 340 339 339 338 337 335 335 335 335 336 337 340 343 344 343 340
206 205 202 200 199 199 199 199 198 196 194 192 190 189 189 189 186 181 176 175 183 194 201 203 201 198 198 199 200 199 196 196 199 199 201 208 210 203 202 211 221 229 236 246 255 259 265 286 325 356 356 359 360 354 350 350 349 350 350 348 345 345 345 347 350 349 346 345 345 344 342 341 341 340 337 336 336 336 336 338 340 343 344 343 340
209 209 208 206 204 203 203 203 201 198 196 195 193 193 193 193 191 187 183 183 184 186 189 193 194 193 192 192 192 193 192 193 196 197 202 210 209 202 205 216 224 228 230 237 245 247 246 247 272 344 354 1 1 353 349 350 350 350 350 347 344 343 343 346 349 347 346 347 347 345 344 343 343 342 339 336 336 337 337 338 340 342 341 341 339
212 212 212 212 210 209 208 206 203 202 200 198 198 198 198 197 195 194 193 191 188 184 184 185 184 187 193 195 192 190 190 193 196 198 204 210 208 204 209 218 224 226 228 230 232 232 229 227 233 273 338 355 359 350 344 346 349 350 349 345 341 340 342 345 346 346 346 348 347 346 346 346 346 346 342 336 335 337 337 337 338 340 340 340 339
215 215 215 215 214 213 212 211 208 206 204 202 201 202 203 201 199 197 195 193 189 186 184 184 182 184 191 194 190 186 190 195 197 198 204 210 209 207 212 219 222 223 224 223 222 224 226 228 230 240 281 312 332 334 336 341 346 347 347 345 343 342 342 343 345 346 346 345 344 345 347 348 349 348 343 335 333 336 338 338 337 338 339 340 340
220 219 219 219 217 215 215 214 212 209 207 206 206 206 205 203 201 199 198 195 192 188 185 184 184 187 193 195 191 186 188 195 195 195 202 209 209 206 209 213 217 221 222 220 219 223 227 231 235 240 256 279 298 312 323 333 338 341 342 343 344 345 344 344 347 348 346 343 343 345 347 348 350 349 344 335 331 334 337 337 337 337 338 340 341
224 223 223 222 221 219 217 216 214 211 209 208 209 208 206 203 201 200 199 196 192 190 187 187 190 194 197 196 191 187 191 198 200 201 205 208 207 206 208 210 214 218 219 219 222 226 228 232 237 242 251 270 288 300 312 324 331 336 338 340 343 345 345 345 346 346 342 340 341 344 347 348 348 348 345 338 334 334 335 335 336 337 337 337 339
227 226 226 225 224 222 220 218 216 214 212 210 209 207 206 205 204 203 201 197 194 193 192 193 196 199 199 197 194 194 199 204 205 205 207 208 207 208 210 211 213 216 218 220 226 232 237 239 242 247 256 269 283 293 304 315 323 328 331 333 337 340 341 342 342 339 338 339 341 343 346 347 346 345 345 343 339 336 334 333 335 336 337 337 339
229 228 227 226 225 224 222 220 220 218 215 213 211 209 208 209 208 205 202 199 198 197 198 199 201 201 199 198 199 202 206 209 208 206 207 208 210 213 214 213 214 215 217 221 229 237 245 249 251 255 262 271 281 289 297 304 312 318 322 325 328 331 334 337 339 336 335 338 341 342 344 346 344 343 343 343 341 338 335 335 334 335 337 340 342
231 230 228 227 225 223 222 222 221 220 217 215 213 211 211 210 208 205 203 202 201 201 200 200 200 199 199 199 200 203 208 210 208 207 208 209 211 214 216 216 216 217 218 221 229 238 247 253 256 260 266 274 282 286 290 295 301 307 312 316 319 321 325 329 333 334 335 336 339 341 342 343 343 342 342 342 342 339 337 336 335 335 338 342 345
233 231 229 228 225 224 224 224 222 220 218 216 215 214 212 210 209 208 206 204 203 203 202 201 198 197 198 198 198 202 207 209 207 207 209 210 213 215 217 218 220 221 221 223 227 235 243 250 256 262 268 275 280 283 285 289 295 298 303 308 310 312 316 321 325 329 333 334 336 338 340 341 342 342 342 342 342 341 340 338 337 336 338 341 345
235 232 230 229 227 226 226 226 224 223 221 218 216 214 212 210 211 210 207 206 206 206 205 202 198 195 195 194 194 200 207 210 208 208 210 212 215 217 220 222 224 225 226 227 229 233 240 247 253 260 267 272 277 279 280 283 288 292 296 299 301 303 307 311 315 322 327 329 331 333 337 339 340 341 342 341 340 342 343 341 338 337 337 338 342
236 233 231 230 228 227 227 227 226 225 221 218 216 215 213 211 211 210 208 208 209 208 206 203 199 196 196 195 195 201 207 209 208 208 211 214 217 219 222 225 228 230 231 231 232 236 241 246 250 256 262 268 271 274 276 278 281 286 289 290 292 296 301 303 306 312 317 320 323 327 331 335 337 340 341 339 338 340 342 341 339 337 336 334 335
239 236 234 232 230 229 228 227 226 224 221 218 218 217 215 214 213 211 210 209 209 208 207 205 202 200 199 198 199 204 208 209 210 211 213 215 218 221 224 227 230 233 234 234 235 239 243 246 251 255 260 264 268 270 272 274 276 279 282 282 284 289 292 294 297 301 304 310 316 321 325 329 333 336 338 337 337 337 340 342 342 340 336 332 330
242 240 237 235 234 233 232 229 227 225 223 221 220 219 217 216 214 213 212 211 210 209 209 207 204 203 202 201 204 208 210 211 212 213 215 217 219 221 225 229 232 235 237 237 239 243 245 248 251 255 259 263 266 268 270 272 274 276 277 277 279 282 284 285 286 289 294 304 310 313 317 323 328 332 335 336 335 336 337 339 341 341 339 334 329
244 242 240 237 235 235 234 232 229 227 226 224 222 221 220 218 216 215 213 212 210 209 209 208 206 205 204 204 207 210 212 213 215 216 218 220 221 223 226 230 233 237 239 240 242 244 246 248 251 254 258 261 264 266 268 271 273 275 275 275 275 276 278 279 280 282 292 303 305 304 309 317 322 326 330 333 333 332 333 335 339 341 340 335 330
246 244 242 240 237 236 235 233 231 230 229 227 225 224 222 219 218 217 215 212 210 211 211 209 207 206 206 206 208 211 213 214 216 218 220 222 223 225 228 231 234 236 238 240 242 244 246 248 250 254 257 260 262 265 267 269 272 274 275 275 274 273 273 274 276 279 287 294 293 293 301 311 316 320 325 328 328 328 327 329 333 337 337 335 332
248 246 244 242 240 240 239 237 235 234 232 228 227 226 223 220 219 217 215 212 212 212 211 209 208 208 208 209 210 212 214 215 217 220 222 224 225 227 228 230 232 234 236 239 242 244 246 249 253 257 259 261 262 264 266 268 270 272 273 274 275 274 272 272 272 274 275 278 281 287 295 303 309 314 319 322 325 325 324 324 327 330 332 333 332
250 248 246 245 244 243 241 240 238 237 234 231 229 228 225 222 219 217 214 213 214 213 212 211 210 210 211 212 213 214 215 217 220 223 225 226 226 227 227 229 230 232 235 239 244 247 250 253 257 259 260 262 263 264 266 268 269 270 271 272 273 274 274 273 271 270 269 272 278 285 291 296 302 310 315 318 321 321 320 320 320 321 324 327 328